CZ-6A DEB, 54926

Orbit data source: Space-Track

CZ-6A DEB, 54926 is space debris in SSO originally from a launch on Fri, 11 Nov 2022 UTC launched from the Taiyaun Space Center, China (TSC). Debris objects in space refer to the collection of defunct objects orbiting the Earth. Examples of debris include non-operational satellites, rocket bodies, and fragments generated from explosions, collisions, or faulty payload assembly.

Loading next visibility...
Identifier
54926, 2022-151RP
Orbit
SSO
Country
Flag of CNCN / PRC
Related business
Manufacturer
SAST
Mission
Spacecraft
Bus & Motor
Unknown
Mass
Unknown
Launch date (UTC)
2022-11-11 (4 years ago)
Launch vehicle
Unknown
Launch site
Taiyaun Space Center, China (TSC)
Object type
Payload
Rocket body
Debris
Shape & HBR
Unknown shape, 0.1 m
Radar Cross Section
Medium (>0.1 m² and <1 m²)

Expand to show TLE details & history
Last TLE update: 22 hours ago

TLE from 22 hours ago
0 CZ-6A DEB
1 54926U 22151RP  26236.21150029  .00000357  00000-0  22973-3 0  9997
2 54926  98.8487 224.5217 0063097 159.8200 200.5485 14.08377257193602
Epoch: 2026-08-24T05:04Z
TLE epoch observation values (Epoch: 2026-08-24T05:04:33.625Z)
Latitude
0.00002°
Longitude
175.88514°
Altitude
910.662 km
Speed
7.375 km/s
True Right ascension
14h 58m 05s
True Declination
0° 00' 00"
Sunlit
Object was in daylight at epoch
Visualization orbit readout
Latitude
Unknown
Longitude
Unknown
Altitude
Unknown
Speed
Unknown
Apparent Right ascension
Unknown
Apparent Declination
Unknown
Sunlit
N/A
Visualization observer readout
Local Sidereal Time
18:25:41
Azimuth
Unknown
Elevation
Unknown
Doppler factor
Unknown
Orbital elements
Apogee altitude
907.795 km
Perigee altitude
816.427 km
Semi-major axis
7,240.248 km
Eccentricity
0.00631
Inclination
98.8487°
RAAN
224.5217°
Arg. of periapsis
159.82°
True anomaly
200.29658°
Mean anomaly
200.5485°
Eccentric anomaly
200.42235°
Mean motion
3.523 °/min
Orbital period
102.19 mins
BSTAR
0.00022973
Loading maneuver chart data...
Computing Atmospheric mass density...
Loading historical data...
Loading historical data...
Loading historical data...
Loading historical data...
Loading historical data...
Loading historical data...
Loading historical data...

Documentation

Showing up to 5 results
|